Theta_e
323 319 319 310 298 298 296 301 307 309 310 313 316 314 314 315 311 304 326 330 331 334 338 342 346 347 347 345 346 345 342 339 337 336 336 335 335 334 334 334 334 334 333 333 333 332 332 332 331
320 321 311 304 295 292 295 305 309 308 315 316 315 315 315 311 320 321 325 330 334 336 338 341 343 346 345 345 347 345 342 339 337 335 335 335 335 334 334 333 332 332 332 331 331 331 331 330 330
318 315 307 300 294 293 298 305 307 310 315 310 313 318 315 315 320 324 326 333 336 335 337 339 343 345 344 346 345 344 340 338 336 335 335 334 333 333 333 333 332 332 331 331 330 330 329 329 330
311 311 305 298 294 298 301 307 310 309 309 315 315 312 319 326 324 325 333 336 335 334 336 339 343 344 344 344 343 341 339 337 335 335 334 333 333 333 333 333 332 332 332 332 332 331 332 332 332
311 306 298 294 296 299 304 310 311 308 308 311 313 310 314 323 325 332 335 335 333 332 334 336 341 342 344 343 342 340 338 336 335 335 334 333 333 332 332 332 332 332 332 333 333 333 333 333 333
304 304 296 294 298 298 306 310 310 307 311 313 313 313 317 323 326 332 335 334 336 332 334 335 335 339 342 343 343 342 340 338 336 334 333 333 333 333 333 333 333 334 334 334 334 334 334 333 333
302 299 296 300 299 298 302 307 306 306 306 309 316 312 319 324 327 331 330 331 331 333 332 334 335 334 334 338 339 339 340 339 338 338 337 336 336 335 334 334 334 334 335 335 334 334 334 335 335
304 301 298 299 299 301 303 305 306 306 305 315 317 311 314 325 329 331 329 328 329 331 333 332 334 334 332 334 331 334 337 337 337 336 333 332 331 331 331 330 331 333 335 335 335 335 335 335 335
306 298 296 300 302 302 305 304 306 314 315 317 319 315 320 325 331 329 328 327 329 331 331 333 332 333 330 332 330 328 329 331 331 331 329 327 326 325 324 325 328 332 333 334 335 335 335 334 331
302 296 298 303 305 302 304 304 307 308 310 315 318 324 322 324 327 325 325 323 325 326 329 327 328 331 331 335 332 332 333 333 330 329 327 326 325 323 324 321 323 326 326 328 330 332 332 325 321
302 297 301 302 306 306 305 302 306 306 301 311 316 320 318 319 323 320 320 321 323 325 328 330 327 327 328 328 328 330 331 331 329 327 326 325 324 323 323 322 322 322 320 321 322 321 320 320 319
299 303 303 305 304 305 302 304 303 306 306 316 322 321 318 320 321 321 321 320 319 320 325 328 329 328 326 327 327 325 325 325 325 326 326 325 324 323 323 323 322 321 321 320 320 320 320 320 320
299 300 302 303 303 304 309 306 306 312 318 321 320 317 317 320 319 317 322 318 324 320 324 325 327 328 329 327 328 328 328 329 330 328 328 330 326 324 326 324 325 322 323 322 320 319 319 319 319
302 301 301 302 301 303 303 298 305 299 306 305 303 301 302 303 304 305 305 305 306 311 313 327 323 326 328 327 327 328 329 330 329 327 326 327 327 326 326 326 325 324 325 324 323 322 322 320 321
301 298 297 297 300 300 301 295 293 298 299 298 300 300 301 301 302 301 302 303 304 307 311 315 320 325 323 324 325 326 329 330 331 332 333 332 331 330 329 328 327 328 326 325 325 324 324 323 323
297 297 293 296 297 297 301 292 292 298 300 296 297 297 298 298 298 299 299 301 303 305 307 309 314 326 327 329 332 332 328 323 319 315 316 316 317 326 326 324 323 327 326 323 323 325 322 322 322
298 288 290 291 294 295 295 287 291 298 298 296 297 296 296 296 297 297 298 299 299 300 302 305 307 313 330 332 326 321 315 312 310 307 308 308 308 312 313 312 313 313 312 308 308 313 314 315 310
292 291 290 290 291 291 289 287 291 296 295 294 293 293 294 294 294 296 296 297 297 297 300 301 305 308 330 325 320 316 311 307 305 302 301 302 303 304 305 304 304 305 303 302 302 304 307 312 305
298 295 292 290 293 289 287 288 290 292 294 294 293 294 292 292 294 295 295 294 294 294 295 297 299 304 317 319 313 308 304 303 300 300 299 299 299 300 300 300 300 301 300 299 300 301 303 305 301
298 296 293 295 296 290 288 286 290 290 290 292 292 292 292 293 293 292 292 293 292 291 292 294 296 299 305 309 309 306 301 299 299 298 297 296 297 297 298 297 297 297 297 297 296 297 297 299 299
296 294 292 293 294 294 291 288 287 288 290 291 291 291 291 291 291 291 291 291 291 290 290 292 294 296 297 300 300 298 296 295 294 294 294 294 295 295 296 296 296 295 295 294 294 294 293 293 294
289 297 297 295 293 286 293 281 290 287 286 288 289 289 289 289 289 289 290 290 290 289 290 291 291 293 294 295 294 292 291 290 291 292 293 293 293 293 294 294 294 293 293 292 292 292 291 292 290
291 298 298 296 293 290 287 286 289 287 284 286 287 289 289 289 289 288 288 289 289 290 289 290 290 290 291 291 292 291 290 291 290 290 290 291 291 291 292 293 292 290 290 290 290 289 288 290 290
297 295 293 293 291 284 288 287 285 286 288 288 289 290 290 290 290 290 290 290 289 290 290 290 289 289 289 289 289 289 287 287 287 287 287 288 288 289 290 291 291 289 288 288 289 288 287 287 288
295 291 283 282 282 282 287 288 287 291 293 290 288 288 289 290 289 289 288 288 289 288 289 290 289 287 287 287 287 287 286 286 285 285 285 285 286 286 287 288 289 287 287 287 288 286 285 285 286
291 291 282 276 278 281 288 285 286 285 292 291 290 289 289 288 289 288 288 287 287 287 287 287 287 286 286 285 285 285 286 285 285 284 284 284 285 286 287 287 288 286 286 286 286 285 284 284 285
290 288 289 282 277 279 285 284 284 285 287 289 289 288 288 288 288 287 287 286 286 286 286 286 286 286 285 285 284 283 283 283 282 283 283 283 284 286 286 286 285 286 285 285 284 284 282 283 283
292 293 285 284 276 276 279 279 282 281 283 286 287 287 288 288 286 286 285 285 285 285 285 285 285 284 284 284 283 282 282 282 282 282 281 281 282 284 285 284 284 285 284 284 283 283 282 281 282
288 288 287 286 283 278 275 278 283 284 285 286 287 287 287 286 285 284 285 284 284 283 283 283 283 284 283 283 282 281 281 281 281 281 281 281 281 282 283 283 283 282 283 283 282 282 280 279 280
288 287 288 283 278 280 279 278 283 285 287 288 286 287 287 287 286 285 285 284 283 283 283 282 282 282 282 282 281 280 280 280 280 280 280 281 280 281 282 282 282 281 281 282 281 280 280 278 278
Wind_Speed
2 3 2 6 5 5 2 1 1 3 1 3 2 3 7 3 3 3 3 3 10 8 6 6 10 12 13 11 12 14 14 12 11 10 10 9 9 9 9 9 8 8 8 7 7 7 8 8 8
1 3 5 3 5 2 5 2 1 2 5 5 5 3 6 3 3 5 4 4 9 8 6 7 9 12 12 9 13 14 13 11 10 9 8 8 8 8 8 8 7 7 7 6 6 6 7 7 7
3 5 4 5 3 3 3 3 5 3 5 2 4 5 3 1 3 6 4 10 7 7 6 7 11 11 12 14 14 13 12 11 9 8 7 6 6 7 6 6 6 6 6 6 6 6 7 7 8
3 5 5 5 3 5 4 4 5 6 2 5 3 6 3 3 5 6 10 12 10 5 6 8 11 11 11 11 12 12 11 10 8 7 6 5 5 5 5 5 5 6 6 7 6 6 7 9 9
4 3 4 2 4 4 3 1 3 5 4 2 1 3 3 4 6 13 12 11 14 5 5 5 9 11 12 11 11 11 9 8 6 5 4 4 3 3 4 4 5 6 7 8 8 9 9 9 10
4 3 4 2 3 3 2 2 4 2 3 3 5 5 2 3 3 8 10 11 12 8 6 4 5 7 10 11 11 8 8 8 6 4 3 2 2 3 4 5 6 7 8 8 9 10 10 11 11
5 4 5 2 2 2 0 2 3 4 4 2 5 5 3 4 4 7 7 7 6 6 5 4 4 5 6 8 10 10 8 7 6 4 3 1 1 3 4 5 7 9 10 11 11 10 11 12 12
5 4 4 5 3 1 2 3 2 5 3 1 3 5 6 5 6 9 8 7 6 5 6 5 3 2 3 3 4 5 6 5 4 3 2 3 3 4 5 5 7 9 10 11 12 11 12 12 12
4 4 2 4 5 2 2 4 3 2 7 4 4 3 0 16 12 11 8 6 6 3 5 6 6 3 1 2 0 1 1 2 2 2 3 4 3 4 5 5 7 9 11 12 12 12 11 9 9
4 4 6 2 5 1 0 3 6 4 4 4 5 9 6 10 13 11 8 8 7 7 5 3 5 6 4 3 2 3 3 3 3 2 3 3 4 4 4 6 7 9 9 10 11 11 9 7 4
3 5 4 1 2 3 4 3 3 7 1 5 11 11 5 7 7 8 6 6 6 4 4 6 4 5 5 3 3 2 1 2 2 5 4 4 3 3 3 3 3 4 4 4 5 5 3 5 4
3 4 3 1 2 2 5 5 6 6 5 2 13 7 6 9 7 7 6 6 4 4 5 5 5 5 5 3 3 3 3 3 3 4 5 3 3 4 4 3 4 3 2 5 4 3 5 5 6
4 2 3 2 3 5 14 11 7 7 8 11 12 12 9 7 8 7 5 5 3 4 3 5 5 5 4 4 3 3 3 3 4 4 3 3 3 4 3 4 3 3 3 3 4 4 4 5 5
5 3 2 1 1 4 10 6 4 7 8 13 14 14 12 12 8 7 9 8 7 5 5 3 6 6 4 4 5 4 2 2 2 3 3 4 3 3 3 3 4 4 3 3 3 4 5 4 5
2 4 1 4 4 5 2 8 7 4 8 13 13 10 11 12 12 11 7 7 6 5 5 6 4 5 5 2 0 0 1 2 3 4 8 8 5 4 3 2 3 3 3 4 3 4 3 4 4
4 3 5 3 3 2 4 3 7 6 10 10 9 7 9 11 10 9 9 8 8 5 6 6 6 3 5 4 4 5 8 8 9 8 8 11 11 10 8 7 7 7 7 7 7 6 5 4 5
3 4 4 2 6 0 6 5 4 8 9 8 5 7 7 7 10 10 9 8 8 7 6 6 7 5 6 9 10 11 12 10 8 8 7 12 13 12 9 8 8 9 7 7 7 6 6 7 8
8 2 1 5 3 9 6 5 6 8 11 6 5 7 7 7 8 8 10 10 9 9 9 8 6 7 8 11 9 8 9 8 8 9 9 13 10 13 10 9 9 8 7 8 8 6 7 5 8
10 5 1 2 2 8 6 9 5 5 8 8 4 5 6 6 5 8 9 9 9 12 12 12 10 11 6 7 7 6 7 7 9 9 13 12 11 12 10 8 9 8 9 9 10 7 6 6 11
13 10 1 4 7 7 6 7 5 4 4 4 4 4 5 4 6 8 9 10 11 9 10 12 12 12 10 5 6 5 6 8 7 7 10 11 12 11 10 9 8 9 7 10 11 10 4 4 7
12 17 14 3 4 10 9 3 3 3 4 4 4 3 4 5 5 7 9 9 9 12 10 11 11 12 12 10 8 6 5 4 5 7 7 10 11 11 11 10 8 8 8 8 7 8 9 5 4
14 7 20 13 7 4 1 3 5 5 5 5 6 5 6 6 4 5 7 8 9 8 8 11 12 13 12 11 11 12 7 5 4 4 5 7 10 11 10 9 9 8 7 8 7 8 6 6 7
5 7 17 18 16 7 7 1 2 11 8 8 8 7 6 6 5 5 6 7 7 8 8 9 11 13 12 12 10 8 9 5 4 3 5 7 7 10 10 10 10 10 7 8 9 8 9 6 4
5 7 8 4 3 7 10 9 6 10 17 10 10 10 11 9 8 7 6 7 8 7 8 9 11 12 11 11 10 10 9 7 5 6 5 5 5 6 9 9 8 8 8 9 7 8 9 8 6
6 6 4 5 5 4 2 9 6 7 9 12 15 12 9 10 10 10 8 7 7 7 7 7 10 10 9 10 10 9 9 8 7 5 4 5 5 4 7 8 8 7 8 8 7 9 8 8 6
17 12 5 8 7 7 5 8 4 3 5 14 15 11 8 8 8 8 7 8 6 6 7 6 7 8 7 8 8 7 7 5 5 5 4 4 4 4 5 6 5 7 7 7 7 6 6 7 6
7 11 4 6 1 4 4 3 2 3 8 14 16 15 12 10 9 8 8 8 6 6 5 5 7 7 7 6 6 6 5 6 5 5 4 4 4 4 5 6 6 7 7 7 7 5 7 6 6
3 6 3 2 6 4 2 5 6 6 11 13 15 16 14 11 9 8 7 6 5 5 4 5 5 6 5 5 5 5 5 5 5 5 5 5 4 5 5 5 6 5 5 5 5 4 6 5 5
3 3 4 3 2 4 3 7 3 15 17 19 17 13 14 13 10 9 7 6 6 5 5 5 5 5 5 4 5 5 4 5 4 4 4 4 4 4 5 5 4 5 5 5 4 4 5 7 6
3 5 4 3 3 1 1 5 3 3 8 11 12 13 11 11 11 10 8 7 6 5 5 5 4 5 4 4 4 4 4 4 4 5 4 4 4 4 4 4 4 5 5 5 4 4 3 5 6
Wind_Direction
20 48 64 45 48 62 268 230 70 104 69 341 48 133 127 47 70 187 27 128 128 134 140 160 145 150 144 141 149 133 118 109 107 104 102 97 91 87 82 76 70 71 67 63 58 53 50 43 34
35 97 46 81 84 75 269 299 89 157 146 138 72 55 44 67 74 106 112 125 127 130 120 108 115 138 125 138 140 125 111 110 110 107 104 101 96 89 82 76 65 56 53 48 42 36 33 25 16
117 57 81 91 107 185 210 210 169 92 141 20 98 62 81 50 50 144 117 122 115 115 122 125 119 115 115 115 115 113 115 116 118 117 112 104 93 86 76 70 58 44 35 28 21 15 12 5 356
83 21 41 87 232 254 206 186 146 115 110 62 108 68 47 355 162 139 131 119 129 106 120 136 130 128 125 116 120 121 124 125 125 120 114 104 88 74 60 44 32 17 4 359 357 353 348 346 342
37 61 72 88 254 263 236 247 168 133 107 62 118 128 65 18 82 125 129 130 142 120 120 135 136 137 135 136 134 131 129 126 122 113 99 84 67 41 29 17 5 355 345 340 337 336 330 331 329
48 94 76 218 252 289 248 216 148 94 87 157 81 96 83 102 97 129 130 135 143 134 133 131 127 131 145 146 138 135 136 136 135 129 115 82 40 6 352 344 339 333 328 324 323 322 321 322 324
115 95 178 174 275 286 44 18 160 107 105 64 137 87 103 137 135 123 110 104 108 116 115 124 145 132 144 148 142 144 151 150 149 151 145 108 357 322 322 325 320 314 316 316 314 311 313 315 317
106 96 154 196 201 188 347 80 95 83 98 58 16 153 158 138 123 100 79 89 96 111 126 134 110 129 66 118 143 150 157 160 165 172 190 221 259 294 310 314 307 308 305 305 306 308 307 307 309
125 64 207 179 144 244 168 119 14 40 91 60 10 42 120 124 115 101 105 124 141 124 162 146 148 159 100 126 64 1 331 187 193 256 271 286 287 291 294 289 293 302 300 305 300 299 301 304 305
98 124 222 234 173 169 62 129 143 108 84 66 80 74 75 128 132 131 142 150 170 175 185 180 164 174 170 174 184 221 242 240 263 252 252 263 274 281 286 292 291 298 301 306 305 307 306 314 294
162 186 203 314 259 156 162 95 81 111 133 192 157 136 108 116 126 135 142 155 169 177 202 202 197 181 174 192 161 221 250 258 259 268 267 263 269 275 282 290 291 295 302 306 311 311 299 295 283
155 224 202 292 329 104 139 114 66 49 316 137 133 107 101 129 139 136 141 140 144 183 208 212 203 200 192 177 190 199 218 251 275 273 271 268 269 276 277 274 283 284 301 302 298 291 290 287 279
179 215 187 202 100 91 90 66 82 46 65 89 79 70 67 67 64 51 68 72 147 174 208 221 213 215 191 201 200 216 225 225 230 254 278 268 284 279 287 282 286 282 285 265 290 294 291 288 285
202 189 135 9 82 53 95 37 116 21 49 66 65 58 55 58 42 56 39 32 28 20 5 287 213 212 197 211 203 218 233 283 303 307 294 293 265 272 285 306 318 323 305 295 281 283 292 294 291
138 156 52 47 320 102 94 40 42 37 64 73 71 64 58 45 50 42 18 28 10 9 359 358 318 196 188 156 127 302 14 46 29 25 31 19 13 352 25 10 6 354 345 341 326 324 317 318 312
126 92 151 351 347 348 136 147 8 91 88 73 65 51 56 41 41 26 17 7 359 15 9 6 4 342 139 121 86 68 55 52 45 36 24 31 26 19 35 32 17 11 21 14 2 0 352 341 354
39 185 158 182 17 48 68 140 319 96 95 85 64 63 48 42 28 20 16 11 6 359 2 22 13 24 112 100 81 71 65 56 48 43 22 28 29 24 37 31 24 23 24 18 4 358 359 22 355
149 234 181 157 3 41 75 110 88 73 105 83 71 59 52 43 23 13 18 20 9 4 18 26 24 21 100 99 91 80 72 64 53 47 34 34 33 32 36 32 30 28 29 20 6 2 357 32 346
200 155 10 69 126 75 71 96 70 97 84 105 84 78 79 45 354 34 27 24 23 21 20 24 28 19 56 99 89 76 68 61 53 49 40 33 33 34 32 34 28 22 32 23 16 350 1 12 357
175 187 340 94 26 86 106 79 78 52 80 99 139 123 90 86 45 35 32 28 35 29 26 23 29 29 43 54 80 83 90 67 63 49 47 35 32 32 40 35 33 30 27 28 23 20 351 354 15
196 191 176 197 83 50 121 96 160 81 102 113 88 98 72 89 86 57 51 35 37 36 24 37 37 44 46 47 78 73 65 59 36 32 39 36 32 29 31 32 34 32 31 24 25 17 20 358 348
210 189 185 163 162 180 324 201 206 177 179 165 159 155 134 115 83 63 63 56 42 30 36 45 47 50 47 52 68 69 73 79 36 30 34 41 35 32 29 33 31 35 28 35 21 23 19 13 21
230 151 162 177 187 140 189 264 259 158 205 206 192 168 149 125 107 81 66 64 48 44 44 50 53 52 49 52 58 76 79 71 65 33 38 36 38 31 24 29 31 29 27 24 23 22 22 20 24
134 97 50 69 160 207 173 186 211 191 195 175 168 171 156 140 121 101 83 76 61 53 54 56 62 54 46 53 54 64 72 69 60 41 36 29 30 31 24 24 37 31 24 20 23 15 25 18 23
183 159 143 198 215 227 202 201 245 200 180 168 162 168 167 150 142 133 113 89 71 55 52 71 66 62 52 55 54 49 59 62 59 45 37 31 32 28 16 23 32 27 24 20 19 22 20 17 18
196 199 153 186 184 188 147 226 220 253 280 141 151 154 138 142 136 122 120 100 93 81 62 65 69 69 62 60 56 50 52 59 53 47 42 36 31 39 15 24 40 36 30 24 22 31 22 12 12
189 200 137 110 56 91 195 308 240 99 112 145 149 152 157 151 132 134 122 108 106 86 80 82 85 76 65 69 71 58 56 61 57 47 38 39 25 34 25 28 30 37 29 24 19 33 22 10 2
168 143 125 24 161 189 249 283 233 194 163 157 162 164 156 143 138 134 118 115 97 99 94 79 79 86 82 70 65 65 57 55 52 42 42 34 27 21 22 25 28 24 31 22 27 31 21 17 6
119 151 91 86 150 165 156 248 226 188 182 177 172 161 152 146 153 141 131 136 129 123 110 100 90 88 75 71 71 65 55 55 56 53 44 35 35 27 31 26 27 21 14 17 26 19 28 16 7
128 147 142 169 207 119 69 281 341 222 177 168 154 147 148 148 153 149 147 151 153 148 137 128 109 101 106 100 93 80 74 69 62 46 32 26 38 30 29 23 25 14 3 4 12 20 19 9 359